THOR ABLESTAR DEB, 155

Orbit data source: Space-Track

THOR ABLESTAR DEB, 155 is space debris in LEO originally from a launch on Thu, 29 Jun 1961 UTC launched from the Air Force Eastern Test Range (AFETR). Debris objects in space refer to the collection of defunct objects orbiting the Earth. Examples of debris include non-operational satellites, rocket bodies, and fragments generated from explosions, collisions, or faulty payload assembly.

Loading next visibility...
THOR ABLESTAR DEB details
Identifier
155, 1961-015AR
Orbit
LEO
Last TLE update10 hours ago
Origin
Flag of USUSAF SSD (US)
ManufacturerUnknown
MissionSpacecraft
Bus & MotorUnknown
MassUnknown
Launch date (UTC)
1961-06-29 (64 years ago)
Launch vehicleUnknown
Launch site
Air Force Eastern Test Range (AFETR)
Object type
Payload
Rocket body
Debris
Shape & HBRUnknown
Radar Cross SectionSmall (<0.1 m²)

Expand to show TLE details & history

TLE from 10 hours ago
0 THOR ABLESTAR DEB
1 00155U 61015AR  25014.90062090  .00003304  00000-0  89750-3 0  9994
2 00155  66.8760 217.1893 0043710 298.1573  61.5123 14.48205149285941
Epoch: 2025-01-14T21:36Z
Definitive object data (Epoch: 2025-01-14T21:36:53.645Z)
Latitude-0.00003°
Longitude138.36509°
Altitude718.936 km
Speed7.504 km/s
True Right ascension14h 28m 45s
True Declination0° 00' 00"
Sunlit
Object was in daylight at TLE epoch
Visualization TLE readout
Latitude-4.63917°
Longitude135.28464°
Altitude717.463 km
Speed7.506 km/s
Apparent Right ascension16h 33m 44s
Apparent Declination-28° 07' 13"
Sunlit
Object is in daylight
Visualization observer readout
Local Sidereal Time08:11:45
Azimuth92.623° ESE
Elevation-44.043°
Doppler factor1
Orbital elements
Apogee altitude760.926 km
Perigee altitude698.788 km
Semi-major axis7,107.994 km
Eccentricity0.004371
Inclination66.876°
RAAN217.1893°
Arg. of periapsis298.1573°
True anomaly61.95368°
Mean anomaly61.5123°
Eccentric anomaly61.73287°
Mean motion3.62178 °/min
BSTAR0.0008975
Orbital period99.4 mins
Loading maneuver chart data...

THOR ABLESTAR DEB Visibility forecast

Observer location: undefined°, undefined

Span
Click to sort rows by Start time (UTC) header in descending order
Start Az.
Max El. time (UTC)
Max El. Az.
Max El.
End time (UTC)
End Az.
9 mins2025-01-15 14:18:12.252Z177.194° S2025-01-15 14:22:12.252Z123.477° SE31.213°2025-01-15 14:27:12.252Z45.217° ENE
7 mins2025-01-15 16:02:12.252Z264.454° W2025-01-15 16:05:12.252Z316.935° NNW25.334°2025-01-15 16:09:12.252Z8.299° NNE
7 mins2025-01-15 23:01:12.252Z3.877° NNE2025-01-15 23:04:12.252Z49.601° ENE24.075°2025-01-15 23:08:12.252Z104.346° ESE
8 mins2025-01-16 00:43:12.252Z309.973° NW2025-01-16 00:46:12.252Z257.976° W34.382°2025-01-16 00:51:12.252Z177.985° S
|